Location: Bacea
(45.9500°N, 22.6667°E)
Time: 00:31:30
(UTC+00:00)

Cosmos 1470 - Pass Details

Date: 16 October 2021
Orbit: 519 x 542 km, 82.5° (Epoch: 02 December)

Event Time Altitude Azimuth Distance (km) Brightness Sun altitude
Rises 16:17:39 0° 193° (SSW) 2,690 6.6 -7.0°
Reaches altitude 10° 16:19:48 10° 196° (SSW) 1,803 5.8 -7.4°
Maximum altitude 16:23:46 68° 280° (W) 589 3.2 -8.1°
Drops below altitude 10° 16:27:45 10° 4° (N) 1,817 5.4 -8.8°
Sets 16:29:56 0° 7° (N) 2,713 6.2 -9.2°
